Location: Aranbee
(34.0885°N, 118.2342°W)
Time: 13:00:09
(UTC+00:00)

Tiros 1 - Pass Details

Date: 02 December 2020
Orbit: 630 x 663 km, 48.4° (Epoch: 21 January)

Event Time Altitude Azimuth Distance (km) Brightness Sun altitude
Rises 01:53:35 0° 311° (NW) 2,990 11.0 -14.3°
Reaches altitude 10° 01:56:44 10° 332° (NNW) 2,072 9.9 -15.0°
Maximum altitude 01:59:48 17° 12° (NNE) 1,664 9.0 -15.6°
Enters shadow 02:00:49 16° 28° (NNE) 1,711 8.9 -15.8°
Drops below altitude 10° 02:02:52 10° 53° (NE) 2,059 - -16.2°
Sets 02:05:59 0° 74° (ENE) 2,961 - -16.8°
